Change the Weather History Date:

Saturday, January 18, 2014

  Actual Average Record
Temperature  
Mean Temperature 8 °F -  
Max Temperature 17 °F 22 °F 43 °F (1944)
Min Temperature -2 °F 3 °F -32 °F (1967)
Degree Days  
Heating Degree Days 58    
Moisture  
Dew Point 3 °F    
Average Humidity 79    
Maximum Humidity 84    
Minimum Humidity 68    
Precipitation  
Precipitation 0.00 in - - ()
Sea Level Pressure  
Sea Level Pressure 29.84 in    
Wind  
Wind Speed 6 mph (ESE)    
Max Wind Speed 13 mph    
Max Gust Speed -    
Visibility 8 miles    
Events Snow    
Averages and records for this station are not official NWS values.
T = Trace of Precipitation, MM = Missing Value Source: NWS Daily Summary

Daily Weather History Graph

Daily Weather History Graph

Search for Another Location

Airport or City:

Trip Planner

Search our weather history database for the weather conditions in past years. The results will help you decide how hot, cold, wet, or windy it might be!

Date:

Astronomy

Jan. 18, 2014 Rise Set
Actual Time 7:32 AM CST 4:50 PM CST
Civil Twilight 7:00 AM CST 5:22 PM CST
Nautical Twilight 6:24 AM CST 5:58 PM CST
Astronomical Twilight 5:49 AM CST 6:33 PM CST
Moon 7:41 PM CST (1/18) 8:24 AM CST (1/18)
Length of Visible Light 10h 22m
Length of Day
9h 18m
Waning Gibbous, 94% of the Moon is Illuminated
Jan 18
Waning Gibbous
Jan 23
Last Quarter
Jan 30
New
Feb 6
First Quarter
Feb 14
Full

Hourly Weather History & Observations

Time (CST) Temp. Windchill Dew Point Humidity Pressure Visibility Wind Dir Wind Speed Gust Speed Precip Events Conditions
12:54 AM -2.0 °F -10.1 °F -7.1 °F 79% 29.89 in 10.0 mi West 3.5 mph - N/A   Clear
1:54 AM -2.9 °F - -7.1 °F 82% 29.88 in 10.0 mi Calm Calm - N/A   Clear
2:54 AM -2.9 °F -11.2 °F -8.0 °F 79% 29.86 in 9.0 mi ESE 3.5 mph - N/A   Mostly Cloudy
3:54 AM 1.0 °F - -4.0 °F 79% 29.83 in 10.0 mi Calm Calm - N/A   Overcast
4:54 AM 1.9 °F -5.6 °F -2.9 °F 80% 29.81 in 10.0 mi ESE 3.5 mph - N/A   Overcast
5:54 AM 1.9 °F -9.2 °F -2.9 °F 80% 29.81 in 10.0 mi ESE 5.8 mph - N/A   Overcast
6:54 AM 1.9 °F -10.6 °F -2.9 °F 80% 29.80 in 10.0 mi ESE 6.9 mph - N/A   Overcast
7:54 AM 3.0 °F -10.5 °F -2.0 °F 80% 29.81 in 9.0 mi East 8.1 mph - N/A   Overcast
8:54 AM 5.0 °F -9.1 °F 1.0 °F 84% 29.82 in 8.0 mi East 9.2 mph - N/A   Overcast
9:54 AM 7.0 °F -5.7 °F 3.0 °F 84% 29.85 in 6.0 mi East 8.1 mph - 0.00 in Snow Light Snow
10:08 AM 8.1 °F -4.3 °F 3.9 °F 83% 29.76 in 2.0 mi East 8.1 mph - 0.00 in Snow Light Snow
10:15 AM 9.0 °F -5.1 °F 3.9 °F 80% 29.75 in 1.5 mi East 10.4 mph - 0.00 in Snow Light Snow
10:54 AM 10.0 °F -3.7 °F 5.0 °F 80% 29.86 in 1.5 mi East 10.4 mph - 0.00 in Snow Light Snow
11:10 AM 10.0 °F -5.2 °F 5.0 °F 80% 29.76 in 2.5 mi East 12.7 mph - 0.00 in Snow Light Snow
11:21 AM 10.9 °F -3.4 °F 5.0 °F 77% 29.77 in 4.0 mi East 11.5 mph - 0.00 in Snow Light Snow
11:54 AM 12.0 °F -2.0 °F 6.1 °F 77% 29.86 in 6.0 mi East 11.5 mph - 0.00 in   Haze
12:54 PM 14.0 °F 2.0 °F 6.1 °F 71% 29.86 in 10.0 mi ESE 9.2 mph - N/A   Overcast
1:54 PM 15.1 °F 7.7 °F 7.0 °F 70% 29.88 in 10.0 mi East 4.6 mph - N/A   Overcast
2:54 PM 17.1 °F - 8.1 °F 68% 29.88 in 10.0 mi Calm Calm - N/A   Overcast
3:54 PM 16.0 °F 8.8 °F 7.0 °F 68% 29.91 in 10.0 mi WNW 4.6 mph - N/A   Mostly Cloudy
4:54 PM 8.1 °F 1.4 °F 3.0 °F 80% 29.92 in 10.0 mi WNW 3.5 mph - N/A   Clear
5:54 PM 10.0 °F 1.8 °F 5.0 °F 80% 29.93 in 10.0 mi West 4.6 mph - N/A   Clear
6:54 PM 9.0 °F -2.2 °F 3.9 °F 80% 29.92 in 9.0 mi West 6.9 mph - N/A   Clear
7:54 PM 10.0 °F -0.9 °F 5.0 °F 80% 29.91 in 9.0 mi West 6.9 mph - N/A   Clear
8:54 PM 10.9 °F -0.8 °F 6.1 °F 81% 29.88 in 10.0 mi West 8.1 mph - N/A   Clear
9:54 PM 12.0 °F -2.0 °F 7.0 °F 80% 29.83 in 9.0 mi West 11.5 mph - N/A   Scattered Clouds
10:54 PM 12.0 °F -1.3 °F 7.0 °F 80% 29.81 in 9.0 mi WSW 10.4 mph - N/A   Overcast
11:54 PM 14.0 °F -0.2 °F 9.0 °F 80% 29.75 in 9.0 mi West 12.7 mph - N/A   Overcast